Regional Weather Roundup
Issued by NWS

Home | Current Version | Previous Version | Text Only | Print | Product List | Glossary Off
Versions: 1 2 3 4 5 6 7 8 9 10 11 12 13 14 15 16 17 18 19 20 21 22 23 24 25 26 27 28 29 30 31 32 33 34 35 36 37 38 39 40 41 42 43 44 45 46 47 48 49 50

000
ASUS45 KABQ 200610
RWRNM
WEATHER ROUNDUP FOR NEW MEXICO
NATIONAL WEATHER SERVICE ALBUQUERQUE NM
1200 AM MDT MON OCT 20 2014

NOTE: "FAIR" MEANS FEW OR NO CLOUDS BELOW 12,000 FEET AGL WITH NO
       SIGNIFICANT WEATHER OR OBSTRUCTIONS TO VISION.

      THIS PRODUCT IS RELEASED AS TWO VERSIONS.  ONE VERSION NEAR
      THE TOP OF THE HOUR CONTAINING PRELIMINARY DATA FROM ALBUQUERQUE
      AND OTHER STATIONS.  A FINAL VERSION WITH ADDITIONAL DATA IS
      ISSUED ABOUT 10 MINUTES AFTER THE HOUR.

NMZ501-503-504-510>518-200700-
NORTHWEST PLATEAU/NORTHCENTRAL MOUNTAINS

CITY           SKY/WX    TMP DP  RH WIND       PRES   REMARKS
FARMINGTON     CLEAR     52  45  77 SE10      30.17R
6HR MIN TEMP:  52; 6HR MAX TEMP:  66; 6HR PCP: TRACE;

LOS ALAMOS     PTCLDY    50  40  68 N7        30.25R
SANTA FE       PTCLDY    46  37  71 N8        30.20R
6HR MIN TEMP:  44; 6HR MAX TEMP:  60; 6HR PCP: TRACE;

TAOS           PTCLDY    43  36  75 NW7       30.25F
ANGEL FIRE     CLOUDY    33  32  94 SE3       30.33F FOG

$$
NMZ402-403-502-505>509-200700-
WESTCENTRAL MOUNTAINS/SOUTHWEST MOUNTAINS

CITY           SKY/WX    TMP DP  RH WIND       PRES   REMARKS
GALLUP         FAIR      42  40  92 CALM      30.22R
6HR MIN TEMP:  42; 6HR MAX TEMP:  54;

GRANTS         FAIR      36  32  87 CALM      30.23S
SILVER CITY    CLOUDY    54  50  87 W5        30.18R

$$
NMZ407-409-411-412-200700-
SOUTHERN DESERTS

CITY           SKY/WX    TMP DP  RH WIND       PRES   REMARKS
LORDSBURG      LGT RAIN  55  52  88 MISG      30.14R
DEMING         LGT RAIN  57  53  86 NE6       30.14R FOG
6HR MIN TEMP:  55; 6HR MAX TEMP:  67; 6HR PCP:  0.14;

LAS CRUCES     MOCLDY    56  54  91 N15       30.11F
HOLLOMAN AFB   CLOUDY    60  53  77 S7        30.13R
T OR C         CLOUDY    55  51  86 NW5       30.15F
6HR MIN TEMP:  54; 6HR MAX TEMP:  64; 6HR PCP:  0.05;


$$
NMZ519>523-200700-
CENTRAL VALLEYS/CENTRAL HIGHLANDS

CITY           SKY/WX    TMP DP  RH WIND       PRES   REMARKS
ALBUQUERQUE    PTCLDY    55  41  59 SW5       30.16R
6HR MIN TEMP:  55; 6HR MAX TEMP:  61;

DOUBLE EAGLE   CLEAR     47  38  71 NW6       30.19R
MORIARTY ARPT  FAIR      41  37  84 CALM      30.22R
6HR MIN TEMP:  40; 6HR MAX TEMP:  63;

CLINES CORNERS PTCLDY    48  36  63 S8        30.22R
6HR MIN TEMP:  48; 6HR MAX TEMP:  58;

BELEN          NOT AVBL
SOCORRO        LGT RAIN  56  48  75 SW7       30.15R
6HR MIN TEMP:  51; 6HR MAX TEMP:  61;


$$
NMZ524>526-539-540-200700-
SOUTHCENTRAL MOUNTAINS

CITY           SKY/WX    TMP DP  RH WIND       PRES   REMARKS
RUIDOSO        NOT AVBL

$$
NMZ527>531-200700-
NORTHEAST HIGHLANDS/NORTHEAST PLAINS

CITY           SKY/WX    TMP DP  RH WIND       PRES   REMARKS
LAS VEGAS      MOCLDY    45  38  76 N8        30.22S
6HR MIN TEMP:  45; 6HR MAX TEMP:  55;

RATON          PTCLDY    43  38  82 NE7       30.19F
6HR MIN TEMP:  42; 6HR MAX TEMP:  63;

CLAYTON        CLEAR     52  44  74 N10       30.12S
6HR MIN TEMP:  51; 6HR MAX TEMP:  65;


$$
NMZ532>537-200700-
EASTCENTRAL PLAINS

CITY           SKY/WX    TMP DP  RH WIND       PRES   REMARKS
TUCUMCARI      PTCLDY    58  49  72 SW10      30.09S
6HR MIN TEMP:  54; 6HR MAX TEMP:  71;

CANNON AFB     PTCLDY    54  52  94 CALM      30.13R
CLOVIS AIRPORT PTCLDY    54  52  94 SW6       30.15R

$$
NMZ028-029-538-200700-
SOUTHEAST PLAINS

CITY           SKY/WX    TMP DP  RH WIND       PRES   REMARKS
ROSWELL        MOCLDY    57  52  83 N3        30.09F
6HR MIN TEMP:  57; 6HR MAX TEMP:  70;

CARLSBAD       MOCLDY    64  58  80 S5        30.06F
6HR MIN TEMP:  64; 6HR MAX TEMP:  69;

HOBBS          PTCLDY    57  55  94 CALM      30.11R


$$



USA.gov is the U.S. government's official web portal to all federal, state and local government web resources and services.